Fitchburg, MA

8:26 PM EDT on October 17, 2017 (GMT -0400)
Fitchburg Municipal

Weather History for KFIT - November, 2012

Change the Weather History Date:

Monday, November 5, 2012

  Actual Average (KORH) Record (KORH)
Temperature  
Mean Temperature 34 °F -  
Max Temperature 42 °F 50 °F 73 °F (1994)
Min Temperature 25 °F 35 °F 19 °F (1933)
Degree Days  
Heating Degree Days 31    
Moisture  
Dew Point 20 °F    
Average Humidity 54    
Maximum Humidity 78    
Minimum Humidity 40    
Precipitation  
Precipitation 0.00 in - - ()
Sea Level Pressure  
Sea Level Pressure 30.05 in    
Wind  
Wind Speed 8 mph (NNW)    
Max Wind Speed 15 mph    
Max Gust Speed 23 mph    
Visibility 10 miles    
Events      
Averages and records for this station are not official NWS values.
T = Trace of Precipitation, MM = Missing Value Source: NWS Daily Summary

Daily Weather History Graph

Daily Weather History Graph

Search for Another Location

Airport or City:

Trip Planner

Search our weather history database for the weather conditions in past years. The results will help you decide how hot, cold, wet, or windy it might be!

Date:

Astronomy

Nov. 05, 2012 Rise Set
Actual Time 6:26 AM EST 4:34 PM EST
Civil Twilight 5:56 AM EST 5:04 PM EST
Nautical Twilight 5:23 AM EST 5:37 PM EST
Astronomical Twilight 4:50 AM EST 6:10 PM EST
Moon 10:09 PM EST (11/5) 11:44 AM EST (11/5)
Length of Visible Light 11h 07m
Length of Day
10h 08m
Waning Gibbous, 63% of the Moon is Illuminated
Nov 5
Waning Gibbous
Nov 6
Last Quarter
Nov 13
New
Nov 20
First Quarter
Nov 28
Full

Hourly Weather History & Observations

Time (EST) Temp. Windchill Dew Point Humidity Pressure Visibility Wind Dir Wind Speed Gust Speed Precip Events Conditions
12:52 AM 37.9 °F 30.9 °F 24.1 °F 57% 29.99 in 10.0 mi NNW 10.4 mph 23.0 mph N/A   Overcast
1:52 AM 37.0 °F 31.0 °F 21.9 °F 54% 29.99 in 10.0 mi NW 8.1 mph 16.1 mph N/A   Mostly Cloudy
2:52 AM 37.0 °F 31.6 °F 21.9 °F 54% 29.99 in 10.0 mi NW 6.9 mph - N/A   Overcast
3:52 AM 36.0 °F 28.5 °F 21.0 °F 55% 29.98 in 10.0 mi NNW 10.4 mph - N/A   Overcast
4:52 AM 36.0 °F 28.5 °F 21.0 °F 55% 29.98 in 10.0 mi NNW 10.4 mph - N/A   Overcast
5:52 AM 36.0 °F 30.3 °F 21.0 °F 55% 29.99 in 10.0 mi NNW 6.9 mph - N/A   Overcast
6:52 AM 36.0 °F 31.1 °F 21.0 °F 55% 30.01 in 10.0 mi NNW 5.8 mph - N/A   Overcast
7:52 AM 37.0 °F 31.6 °F 21.9 °F 54% 30.03 in 10.0 mi NW 6.9 mph - N/A   Overcast
8:52 AM 37.9 °F 32.1 °F 21.9 °F 53% 30.03 in 10.0 mi North 8.1 mph - N/A   Overcast
9:52 AM 37.9 °F 31.5 °F 24.1 °F 57% 30.04 in 10.0 mi NNW 9.2 mph - N/A   Overcast
10:52 AM 39.0 °F 33.4 °F 21.9 °F 50% 30.03 in 10.0 mi NNW 8.1 mph - N/A   Overcast
11:52 AM 41.0 °F 33.9 °F 19.9 °F 43% 30.01 in 10.0 mi NNW 12.7 mph - N/A   Overcast
12:52 PM 42.1 °F 34.9 °F 21.0 °F 43% 30.00 in 10.0 mi WNW 13.8 mph 19.6 mph N/A   Mostly Cloudy
1:52 PM 41.0 °F 33.5 °F 21.0 °F 45% 30.00 in 10.0 mi North 13.8 mph - N/A   Overcast
2:52 PM 39.9 °F 31.8 °F 19.9 °F 45% 30.02 in 10.0 mi NNW 15.0 mph - N/A   Mostly Cloudy
3:52 PM 39.9 °F 35.1 °F 17.1 °F 40% 30.03 in 10.0 mi WNW 6.9 mph - N/A   Mostly Cloudy
4:52 PM 37.9 °F 32.7 °F 18.0 °F 45% 30.05 in 10.0 mi North 6.9 mph - N/A   Overcast
5:52 PM 37.0 °F 31.0 °F 17.1 °F 44% 30.09 in 10.0 mi North 8.1 mph - N/A   Overcast
6:52 PM 34.0 °F 27.2 °F 19.0 °F 54% 30.11 in 10.0 mi North 8.1 mph - N/A   Mostly Cloudy
7:52 PM 30.9 °F 27.5 °F 18.0 °F 59% 30.13 in 10.0 mi NNW 3.5 mph - N/A   Clear
8:52 PM 28.0 °F - 18.0 °F 66% 30.14 in 10.0 mi Calm Calm - N/A   Clear
9:52 PM 28.0 °F - 18.0 °F 66% 30.15 in 10.0 mi Calm Calm - N/A   Clear
10:52 PM 26.1 °F - 18.0 °F 71% 30.16 in 10.0 mi Calm Calm - N/A   Clear
11:52 PM 25.0 °F - 19.0 °F 78% 30.16 in 10.0 mi Calm Calm - N/A   Partly Cloudy